Date,TemperatureHighF,TemperatureAvgF,TemperatureLowF,DewpointHighF,DewpointAvgF,DewpointLowF,HumidityHigh,HumidityAvg,HumidityLow,PressureMaxIn,PressureMinIn,WindSpeedMaxMPH,WindSpeedAvgMPH,GustSpeedMaxMPH,PrecipitationSumIn
2013-1-1,27.9,13.6,1.2,19.2,2.9,-11.1,73,62,46,29.76,29.52,12,2,12,0.00
2013-1-2,30.0,25.4,17.4,21.9,16.3,6.1,75,68,60,29.90,29.52,21,8,21,0.00
2013-1-3,34.5,21.9,16.2,13.4,7.9,5.5,67,55,34,29.90,29.62,11,4,11,0.00
2013-1-4,38.8,21.1,12.4,14.2,5.4,1.1,61,51,29,29.73,29.57,8,2,8,0.00
2013-1-5,20.7,15.3,9.3,10.8,4.1,-3.5,65,60,55,29.76,29.53,24,5,24,0.53
2013-1-6,29.3,18.3,7.2,16.6,6.9,-3.4,65,60,52,29.77,29.39,8,3,8,0.00
2013-1-7,42.6,28.3,14.2,22.2,14.4,5.6,72,56,41,29.51,29.40,13,3,13,0.01
2013-1-8,46.2,28.6,12.0,27.8,17.5,3.7,73,63,46,29.57,29.26,18,4,18,0.04
2013-1-9,39.4,28.2,18.5,22.0,14.8,4.6,69,57,45,29.72,29.47,14,4,14,0.00
2013-1-10,44.2,35.9,27.5,28.3,24.6,19.0,74,64,44,29.47,29.09,12,3,12,0.00
2013-1-11,32.4,14.5,4.1,24.7,5.6,-5.9,75,67,61,29.37,29.10,23,12,23,0.01
2013-1-12,7.7,2.3,-1.7,-5.4,-11.0,-17.4,62,53,43,29.77,29.37,28,10,28,0.00
2013-1-13,12.9,1.8,-3.6,-4.4,-12.9,-18.5,55,49,42,29.83,29.72,15,3,15,0.00
2013-1-14,16.9,4.0,-3.6,-1.5,-9.5,-16.7,59,52,40,29.83,29.67,9,2,9,0.00
2013-1-15,36.0,20.4,7.9,29.3,8.5,-6.6,80,60,46,29.67,29.28,13,4,13,0.02
2013-1-16,38.3,27.5,17.2,30.0,17.6,6.1,74,66,57,29.79,29.32,14,5,14,0.00
2013-1-17,28.9,25.7,23.2,22.6,16.4,12.6,77,68,57,29.95,29.53,8,3,8,0.00
2013-1-18,48.4,36.2,29.1,28.2,24.0,21.1,76,61,44,29.52,29.35,9,3,9,0.00
2013-1-19,35.6,5.9,-1.1,26.3,-10.6,-17.5,69,46,38,29.95,29.37,30,8,30,0.57
2013-1-20,5.5,-1.2,-10.5,-8.4,-18.5,-30.4,57,43,26,30.05,29.89,27,7,27,0.00
2013-1-21,8.6,-3.8,-12.5,-13.7,-22.7,-30.0,47,38,28,30.00,29.85,13,4,13,0.00
2013-1-22,16.7,7.6,-0.9,2.8,-6.5,-17.4,64,52,42,29.85,29.69,8,2,8,0.00
2013-1-23,9.3,2.9,-2.9,-2.0,-12.4,-20.0,59,48,36,30.10,29.74,17,6,17,0.00
2013-1-24,21.4,5.1,-4.2,11.2,-9.9,-21.6,65,49,41,30.06,29.54,15,6,15,0.00
2013-1-25,23.7,8.5,-0.2,13.4,-8.3,-19.2,65,46,26,29.83,29.59,21,6,21,0.00
2013-1-26,36.5,15.9,2.5,16.2,2.7,-12.6,65,55,43,29.70,29.50,8,3,8,0.00
2013-1-27,37.0,18.9,9.5,15.5,6.6,-1.8,66,58,40,29.51,29.36,5,1,5,0.00
2013-1-28,37.0,28.4,20.1,25.0,19.2,10.6,76,68,60,29.45,29.35,9,1,9,0.00
2013-1-29,26.6,18.7,8.2,17.7,9.4,-4.3,74,66,56,29.67,29.33,23,6,23,0.00
2013-1-30,8.1,-3.6,-12.1,-4.3,-20.9,-29.4,56,42,24,29.68,29.52,24,8,24,0.00
2013-1-31,-1.7,-11.9,-18.6,-25.5,-30.9,-36.0,43,37,27,29.92,29.63,23,7,23,0.00
2013-2-1,26.6,9.5,-12.6,12.6,-3.7,-29.0,72,54,40,29.80,29.53,14,3,14,0.00
2013-2-2,36.7,15.2,4.8,26.6,3.8,-7.6,73,60,54,29.76,29.53,28,7,28,0.26
2013-2-3,29.5,17.7,10.2,14.5,6.2,-1.5,67,60,48,29.73,29.47,11,4,11,0.00
2013-2-4,39.9,24.0,10.4,28.6,13.9,0.1,75,65,61,29.60,29.26,11,3,11,0.01
2013-2-5,36.9,28.7,21.6,23.9,17.2,10.2,68,62,43,29.59,29.28,13,4,13,0.00
2013-2-6,49.3,28.4,18.9,28.3,17.8,10.4,75,65,42,29.69,29.36,15,5,15,0.01
2013-2-7,24.3,20.0,15.6,17.2,12.0,7.5,74,70,66,29.81,29.68,11,4,11,0.00
2013-2-8,27.1,23.8,19.2,19.0,16.4,10.8,75,73,69,29.75,29.54,9,3,9,0.00
2013-2-9,30.6,24.7,20.5,22.6,17.4,13.5,76,73,64,29.54,29.43,8,3,8,0.00
2013-2-10,29.1,22.0,17.8,21.1,13.9,8.1,75,71,64,29.57,29.35,29,11,29,0.00
2013-2-11,27.9,21.1,18.1,13.9,11.2,8.6,72,65,53,29.66,29.46,24,6,24,0.00
2013-2-12,44.8,30.2,19.6,24.3,17.1,9.6,66,58,43,29.52,29.41,11,4,11,0.00
2013-2-13,43.5,33.6,29.8,30.8,24.6,20.0,78,70,59,29.42,29.22,18,4,18,0.06
2013-2-14,32.7,23.0,17.4,26.3,12.1,5.9,77,62,48,29.87,29.41,20,5,20,0.00
2013-2-15,32.7,20.0,16.0,11.1,6.3,2.5,65,55,40,29.97,29.71,14,4,14,0.00
2013-2-16,50.4,30.1,18.7,27.0,18.4,6.0,76,63,37,29.71,29.41,7,2,7,0.00
2013-2-17,50.7,36.4,27.9,30.2,25.6,19.7,77,65,42,29.41,29.11,23,5,23,0.01
2013-2-18,30.6,12.4,-2.2,22.8,-0.2,-17.9,74,56,44,29.85,29.23,28,15,28,0.00
2013-2-19,11.5,-3.1,-11.7,-11.8,-21.4,-28.4,47,40,27,29.99,29.85,14,6,14,0.00
2013-2-20,14.4,3.4,-8.9,1.6,-12.2,-24.7,63,47,39,29.94,29.70,14,6,14,0.00
2013-2-21,32.0,17.7,12.0,10.4,4.3,1.4,64,56,34,29.78,29.70,10,4,10,0.00
2013-2-22,42.8,20.8,10.4,17.6,5.5,-0.5,63,52,31,29.70,29.45,6,2,6,0.01
2013-2-23,50.4,23.0,7.2,24.4,9.6,-3.7,67,57,35,29.46,29.34,7,2,7,0.01
2013-2-24,38.7,28.1,19.9,22.5,16.5,9.6,72,62,45,29.68,29.45,17,4,17,0.01
2013-2-25,52.7,32.6,15.8,22.7,15.2,5.2,67,50,27,29.67,29.50,11,3,11,0.00
2013-2-26,54.1,33.8,19.0,25.9,18.2,8.6,76,55,25,29.72,29.50,17,3,17,0.00
2013-2-27,31.8,27.2,21.0,23.9,19.0,13.3,81,71,62,29.89,29.71,15,8,15,0.00
2013-2-28,38.7,24.9,20.8,22.1,14.7,11.3,73,65,44,29.90,29.84,8,4,8,0.00
2013-3-1,40.5,25.2,19.0,20.0,14.8,10.3,74,65,43,29.97,29.83,8,3,8,0.00
2013-3-2,55.6,34.2,24.3,31.5,23.2,16.8,79,65,38,29.83,29.57,8,3,8,0.00
2013-3-3,43.9,33.0,26.2,30.3,25.7,20.3,84,75,57,29.57,29.24,10,4,10,0.09
2013-3-4,34.2,28.4,19.8,29.0,22.0,13.3,84,77,66,29.73,29.25,0,0,0,0.07
2013-3-5,30.2,17.4,7.2,13.3,6.8,-2.7,76,63,45,30.00,29.73,0,0,0,0.00
2013-3-6,28.9,13.1,1.8,11.6,1.6,-7.5,65,60,43,29.99,29.70,0,0,0,0.00
2013-3-7,32.7,23.7,14.9,20.4,14.3,5.3,71,67,60,29.78,29.61,5,1,5,0.00
2013-3-8,37.9,25.9,18.3,22.7,16.8,10.2,76,69,49,29.81,29.60,10,3,10,0.02
2013-3-9,36.5,24.8,14.4,23.9,15.9,3.8,79,69,56,29.76,29.52,23,8,23,0.02
2013-3-10,33.6,18.5,9.0,12.1,4.8,-2.4,64,55,40,29.89,29.67,21,6,21,0.00
2013-3-11,43.5,27.1,12.7,24.8,13.9,2.9,71,58,41,29.66,29.44,26,7,26,0.04
2013-3-12,30.9,20.7,8.2,17.6,7.9,-4.6,74,58,34,29.92,29.58,24,8,24,0.00
2013-3-13,56.5,26.1,7.0,26.2,8.6,-4.8,66,49,23,29.91,29.56,10,3,10,0.00
2013-3-17,24.6,21.8,14.5,19.9,14.9,4.6,82,74,62,29.40,29.12,14,7,14,0.00
2013-3-18,20.8,12.1,5.2,9.2,-3.2,-7.3,70,51,31,29.62,29.20,21,11,21,0.27
2013-3-19,22.6,11.0,2.5,3.5,-3.3,-8.6,61,52,38,29.99,29.60,18,5,18,0.00
2013-3-20,34.2,14.4,0.5,6.4,-2.3,-11.9,62,49,26,29.99,29.69,8,4,8,0.00
2013-3-21,28.0,15.4,2.8,9.5,0.9,-9.3,60,53,28,29.68,29.55,12,8,12,0.00
2013-4-1,44.8,27.0,13.3,13.4,8.1,2.2,69,48,21,29.91,29.84,8,3,8,0.00
2013-4-2,48.7,29.7,17.6,20.8,12.2,6.4,68,50,27,29.89,29.80,11,4,11,0.00
2013-4-3,68.7,48.8,33.6,34.1,28.9,23.8,69,49,23,29.74,29.48,19,10,19,0.00
2013-4-4,43.9,32.9,25.0,24.2,21.9,19.1,84,66,40,29.87,29.75,11,6,11,0.00
2013-4-5,50.0,33.8,23.5,28.9,20.5,9.5,85,62,26,29.79,29.34,10,7,10,0.00
2013-4-6,46.2,35.9,28.4,35.7,30.3,27.2,96,81,60,29.49,29.30,14,6,14,0.00
2013-4-7,59.4,42.7,31.3,39.4,34.5,27.3,94,69,44,29.47,29.31,11,4,11,0.06
2013-4-8,32.5,24.3,14.4,31.6,19.9,3.6,99,84,60,29.92,29.36,23,11,23,0.01
2013-4-9,33.3,20.5,10.9,13.7,7.2,1.8,67,56,40,30.03,29.91,19,10,19,0.00
2013-4-10,43.0,30.0,22.8,22.0,15.9,11.8,73,57,36,29.99,29.70,14,6,14,0.00
2013-4-12,34.7,30.4,23.9,25.4,23.2,19.8,85,75,63,29.58,29.52,11,6,11,0.05
2013-4-13,41.4,33.1,26.8,29.3,24.7,20.7,87,71,54,29.56,29.34,17,8,17,0.02
2013-4-14,28.6,26.6,25.0,24.3,22.0,19.2,85,82,70,29.37,29.22,27,14,27,0.00
2013-4-15,41.2,31.6,27.0,31.8,24.7,20.1,90,76,58,29.69,29.26,22,11,22,0.01
2013-4-16,40.8,29.9,25.7,25.0,21.0,16.4,80,70,49,29.97,29.67,11,4,11,0.00
2013-4-17,39.0,28.5,21.7,24.0,18.9,16.1,81,67,50,29.98,29.82,17,5,17,0.15
2013-4-18,41.0,28.9,18.1,20.6,15.2,8.8,74,57,40,29.82,29.61,20,8,20,0.01
2013-4-19,44.8,31.9,21.2,16.5,12.7,8.5,64,47,24,29.71,29.58,18,5,18,0.00
2013-4-20,41.2,28.9,16.3,25.8,14.9,4.3,79,57,33,29.73,29.60,14,4,14,0.00
2013-4-21,45.0,34.8,27.1,31.9,25.7,18.2,86,70,46,29.84,29.52,24,8,24,0.05
2013-4-22,39.2,29.1,20.3,19.0,14.6,8.6,70,55,35,30.00,29.83,19,8,19,0.00
2013-4-23,54.7,34.7,17.4,23.5,14.9,6.8,72,47,22,29.98,29.61,14,4,14,0.00
2013-4-24,43.7,34.6,24.8,33.0,22.6,11.4,93,64,28,29.71,29.56,34,7,34,0.06
2013-4-25,69.3,43.8,20.8,35.7,23.7,12.9,81,49,21,29.70,29.42,20,3,20,0.00
2013-4-26,82.6,58.1,34.2,36.6,28.5,18.8,84,43,10,29.69,29.51,12,2,12,0.00
2013-4-27,85.5,65.0,47.5,36.5,31.3,23.4,56,32,12,29.63,29.33,12,3,12,0.00
2013-4-28,67.1,58.3,42.1,37.7,29.5,15.5,48,35,18,29.57,29.28,21,8,21,0.00
2013-4-29,70.3,50.1,34.2,51.7,31.4,17.2,95,53,23,29.54,29.06,17,4,17,0.24
2013-4-30,50.4,43.3,29.3,46.7,31.5,20.1,95,64,43,29.79,29.13,27,9,27,0.01
2013-5-1,57.0,38.0,24.3,22.5,17.5,10.9,74,48,18,30.21,29.78,20,6,20,0.00
2013-5-2,63.3,41.6,24.1,28.1,19.5,13.4,73,45,18,30.28,30.07,11,3,11,0.00
2013-5-3,63.1,43.2,24.3,30.1,21.0,12.3,82,47,16,30.08,29.85,11,4,11,0.00
2013-5-4,62.1,45.5,27.7,31.8,23.6,15.9,83,47,18,29.95,29.87,16,5,16,0.00
2013-5-5,71.6,50.2,32.5,33.5,25.5,16.8,75,44,14,29.90,29.74,14,3,14,0.00
2013-5-6,80.8,60.8,36.1,35.7,27.8,17.6,71,32,12,29.76,29.62,11,2,11,0.00
2013-5-7,86.7,63.4,41.4,43.3,36.5,27.1,80,43,14,29.64,29.48,8,2,8,0.00
2013-5-8,71.1,57.3,46.0,44.3,41.2,32.8,78,56,34,29.81,29.54,18,8,18,0.00
2013-5-9,68.9,53.7,34.9,32.8,24.1,17.1,65,37,14,29.89,29.78,17,8,17,0.00
2013-5-10,74.1,64.5,48.2,38.6,23.5,16.3,34,21,17,29.87,29.63,32,11,32,0.04
2013-5-11,62.8,49.9,36.5,27.4,19.0,8.4,66,31,16,30.03,29.85,15,8,15,0.04
2013-5-12,79.7,54.9,29.3,26.2,19.5,11.8,59,29,11,29.86,29.52,10,3,10,0.00
2013-5-13,94.1,75.1,57.7,46.5,36.2,23.8,41,26,12,29.52,29.28,26,6,26,0.00
2013-5-14,78.1,69.3,58.8,57.1,42.6,29.9,84,41,21,29.49,29.15,32,8,32,0.02
2013-5-15,83.8,68.5,53.4,43.0,35.0,23.6,60,34,12,29.55,29.48,18,5,18,0.00
2013-5-18,76.5,62.8,57.2,60.5,58.3,54.7,99,87,47,29.46,29.38,14,5,14,1.51
2013-5-19,60.4,54.7,51.4,59.5,53.8,51.2,99,97,93,29.40,29.17,23,12,23,0.98
2013-5-20,57.2,52.4,47.5,56.9,51.0,46.7,99,95,87,29.36,29.20,26,14,26,0.27
2013-5-21,49.5,46.0,43.3,48.0,44.4,41.6,99,94,87,31.65,29.36,24,12,25,0.02
2013-5-22,71.4,58.2,46.6,47.8,38.8,21.6,90,55,17,29.78,29.58,22,9,22,0.00
2013-5-23,74.1,60.2,47.5,48.3,43.9,35.5,88,58,26,29.89,29.75,16,8,16,0.00
2013-5-24,68.0,56.8,50.7,53.8,45.5,35.0,83,66,52,29.78,29.59,100,7,100,0.00
2013-5-25,73.9,59.5,48.6,61.1,54.8,48.2,99,86,58,29.71,29.58,24,6,24,0.37
2013-5-26,79.9,61.7,52.0,61.6,55.7,51.4,99,82,51,29.65,29.45,25,6,25,0.06
2013-5-27,61.5,56.2,51.6,58.2,54.4,51.3,99,94,81,29.60,29.32,12,4,12,0.24
2013-5-28,84.7,65.7,52.3,56.4,53.5,50.1,99,69,33,29.35,29.28,14,2,14,0.00
2013-5-29,81.7,66.1,55.9,59.3,55.0,48.6,89,69,39,29.33,29.19,14,5,14,0.00
2013-5-30,82.4,64.1,58.1,64.3,59.5,56.9,99,87,45,29.21,28.97,20,9,20,1.72
2013-5-31,64.8,56.9,49.3,59.9,54.3,47.1,96,91,83,29.45,28.98,23,11,23,0.07
2013-6-1,66.7,55.2,47.1,47.2,42.8,37.9,97,66,38,29.75,29.45,26,13,26,0.04
2013-6-2,75.9,57.1,41.4,46.8,41.2,8.5,95,59,10,29.76,29.61,11,3,11,0.00
2013-6-3,54.0,50.1,46.2,50.2,45.2,39.8,92,83,70,29.63,29.46,22,10,22,0.04
2013-6-4,59.9,51.6,48.4,51.2,48.4,46.3,99,89,70,29.63,29.47,17,6,17,0.12
2013-6-5,63.0,53.5,48.4,51.9,49.5,47.3,99,87,60,29.75,29.63,17,7,17,0.02
2013-6-6,79.9,60.8,46.6,51.3,45.3,38.5,97,62,24,29.73,29.65,11,3,11,0.00
2013-6-7,82.8,65.3,50.2,55.3,49.4,45.3,90,60,30,29.67,29.38,10,3,10,0.00
2013-6-8,63.7,59.6,56.1,60.7,56.8,52.6,99,91,68,29.49,29.35,11,3,11,0.27
2013-6-9,84.2,66.1,54.1,58.4,52.2,44.8,99,68,28,29.54,29.41,9,3,9,0.02
2013-6-10,88.9,68.5,56.5,58.8,55.1,49.6,96,66,32,29.52,29.38,17,4,17,0.00
2013-6-11,83.7,69.5,58.6,57.9,50.3,-2.7,81,54,25,29.59,29.50,14,4,14,0.02
2013-6-12,77.7,64.0,58.6,58.4,56.1,52.0,94,77,44,29.74,29.50,15,5,15,0.26
2013-7-8,93.7,80.3,63.7,68.1,63.5,57.7,84,59,40,29.63,29.50,11,4,11,0.01
2013-7-9,82.2,68.5,59.5,63.6,59.1,53.1,95,74,45,29.76,29.50,13,6,13,0.04
2013-7-10,91.6,71.8,53.2,59.1,55.7,51.3,94,62,30,29.78,29.63,5,2,5,0.00
2013-7-11,98.1,78.7,62.1,71.8,64.3,56.3,85,64,38,29.63,29.33,8,3,8,0.00
2013-7-12,97.9,81.9,74.1,70.8,64.9,56.9,80,59,31,29.54,29.30,9,3,9,0.00
2013-7-13,97.7,79.9,66.6,67.5,62.5,59.6,87,59,29,29.64,29.52,14,3,14,0.00
2013-7-14,75.4,70.8,61.5,63.6,59.0,56.9,92,67,57,29.85,29.66,17,7,17,0.00
2013-7-15,87.1,77.0,65.5,71.3,67.0,59.8,91,72,53,29.81,29.59,11,5,11,0.00
2013-7-16,94.1,78.0,67.5,67.4,63.0,59.5,83,62,36,29.81,29.60,16,4,16,0.00
2013-7-17,100.4,85.5,64.4,71.3,66.2,58.9,90,56,30,29.82,29.63,13,4,13,0.00
2013-7-18,94.5,79.6,70.0,70.9,65.5,54.6,86,64,37,29.64,29.47,21,5,21,0.00
2013-7-19,92.5,73.9,59.7,59.9,55.3,47.4,88,57,24,29.65,29.53,16,5,16,0.00
2013-7-20,81.0,65.0,59.7,59.1,56.7,54.1,94,76,43,29.67,29.58,13,4,13,0.01
2013-7-21,91.8,68.7,55.8,67.4,59.4,53.3,97,75,38,29.59,29.27,27,4,27,0.51
2013-7-22,81.9,67.3,59.2,62.0,56.3,51.8,93,70,38,29.62,29.42,14,5,14,0.00
2013-7-23,86.7,66.5,55.2,58.5,55.1,52.4,93,69,34,29.73,29.61,7,2,7,0.00
2013-7-24,87.1,71.7,57.2,60.3,56.6,52.8,91,62,33,29.72,29.62,17,3,17,0.00
2013-7-25,75.9,67.5,56.5,60.2,53.1,46.3,79,61,39,29.77,29.60,23,8,23,0.00
2013-7-26,74.7,60.3,50.7,51.8,46.2,38.1,99,64,29,29.93,29.76,16,6,16,0.00
2013-7-27,79.5,61.2,46.8,47.7,43.4,37.5,85,56,24,29.89,29.69,10,3,10,0.00
2013-7-28,81.1,63.1,46.9,48.6,44.6,8.5,87,55,28,29.71,29.59,11,4,11,0.00
2013-7-29,76.6,65.3,57.7,62.8,53.9,44.7,93,67,51,29.65,29.56,11,2,11,0.00
2013-7-30,86.0,66.0,52.5,63.9,57.9,52.0,99,78,40,29.78,29.65,8,2,8,0.01
2013-7-31,86.5,69.6,59.4,59.8,52.5,44.9,94,60,27,29.81,29.68,14,4,14,0.01
2013-8-1,84.9,68.8,53.6,54.8,51.0,46.1,85,56,29,29.73,29.60,14,3,14,0.00
2013-8-2,82.4,67.0,57.9,54.1,50.2,44.8,78,57,28,29.74,29.61,9,2,9,0.00
2013-8-3,86.2,68.4,58.1,57.3,53.4,49.7,83,60,33,29.84,29.42,13,4,13,0.00
2013-8-4,84.2,66.9,60.4,63.2,58.3,53.3,89,75,47,29.83,29.58,9,3,9,0.00
2013-8-5,91.6,70.0,58.3,61.4,57.4,52.2,99,70,28,29.60,29.42,11,4,12,0.01
2013-8-6,79.5,67.6,57.9,61.7,56.9,53.4,92,70,45,29.57,29.38,21,5,21,0.00
2013-8-7,80.8,65.0,57.7,56.6,53.5,48.2,94,69,36,29.68,29.57,14,3,14,0.00
2013-8-8,83.8,66.4,57.2,55.1,50.5,39.9,87,61,25,29.74,29.67,15,4,15,0.00
2013-8-9,79.7,63.6,53.6,52.5,48.3,43.1,82,60,30,29.82,29.74,16,4,16,0.00
2013-8-10,88.2,65.4,49.5,62.4,52.7,47.2,96,68,31,29.84,29.67,10,2,10,0.21
2013-8-11,90.7,68.8,57.0,61.9,54.5,47.0,98,65,24,29.77,29.68,9,3,9,0.00
2013-8-12,89.6,69.3,54.9,54.6,49.4,38.4,84,54,19,29.79,29.73,11,2,11,0.00
2013-8-13,88.5,67.5,54.3,54.4,50.4,46.8,88,58,28,29.86,29.76,11,3,11,0.00
2013-8-14,88.9,68.2,57.2,60.0,51.9,46.1,69,58,31,29.80,29.65,10,2,10,0.00
2013-10-14,45.0,42.3,37.4,43.8,40.4,36.5,99,93,79,29.83,29.63,16,10,16,0.00
2013-10-15,51.8,41.2,34.5,39.8,35.7,29.8,99,83,49,29.80,29.69,17,8,17,0.00
2013-10-16,68.7,45.7,32.4,41.3,32.9,27.5,84,65,23,29.68,29.47,11,3,11,0.00
2013-10-17,50.0,41.0,34.2,39.2,31.2,24.8,96,70,41,29.67,29.53,15,7,15,0.00
2013-10-18,48.4,39.7,32.4,38.8,32.8,26.0,96,77,51,29.63,29.42,11,3,11,0.00
2013-10-19,53.1,41.7,34.3,41.1,33.8,25.4,95,75,48,29.45,29.24,8,2,8,0.00
2013-10-20,45.3,37.2,33.6,43.7,33.2,25.7,99,86,66,29.62,29.22,17,7,17,0.27
2013-10-21,41.0,32.9,25.5,31.5,27.2,22.5,96,81,54,29.62,29.53,5,1,5,0.00
2013-10-22,37.0,33.2,30.6,31.8,30.1,28.9,98,89,78,29.71,29.57,4,1,4,0.08
2013-10-23,46.6,34.5,30.2,31.7,28.4,23.9,96,79,49,29.86,29.63,11,3,11,0.07
2013-10-24,46.4,32.8,25.3,32.2,24.9,20.3,84,73,50,29.94,29.84,11,3,11,0.00
2013-10-25,64.9,44.2,28.2,42.7,30.4,22.8,85,62,28,29.83,29.53,15,6,15,0.00
2013-10-26,51.4,38.3,27.1,29.2,25.7,21.7,84,63,33,29.86,29.49,8,4,8,0.00
2013-10-27,47.7,36.8,26.6,34.4,26.1,16.5,81,65,52,29.93,29.42,17,10,17,0.00
2013-10-28,35.4,26.1,20.5,19.0,16.1,14.6,81,66,46,30.10,29.93,15,6,15,0.00
2013-10-29,36.1,29.4,24.1,26.5,20.5,15.1,78,69,60,30.01,29.67,11,3,11,0.00
2013-10-30,41.4,34.6,28.8,34.3,29.8,24.8,88,82,73,29.68,29.30,9,2,9,0.00
2013-10-31,48.0,37.0,28.2,37.4,31.8,25.4,94,82,61,29.30,29.16,15,4,15,0.00
2013-11-1,43.0,39.3,33.8,39.1,33.6,27.7,94,80,69,29.62,29.21,24,6,24,0.01
2013-11-2,63.9,41.9,29.3,33.6,27.5,-11.9,82,61,19,29.67,29.39,11,3,11,0.00
2013-11-3,47.7,41.5,34.3,34.6,30.8,24.8,77,66,59,29.39,29.16,14,4,14,0.00
2013-11-4,45.5,34.4,24.4,26.4,18.0,8.0,74,52,25,29.68,29.31,21,6,21,0.00
2013-11-5,47.8,28.8,18.1,20.6,14.9,9.3,73,57,31,29.81,29.68,13,3,13,0.00
2013-11-6,54.7,32.7,23.0,28.7,19.9,9.5,89,64,19,29.83,29.64,11,3,11,0.00
2013-11-7,53.6,32.9,19.8,28.5,19.3,13.9,80,60,25,29.85,29.59,13,3,13,0.00
2013-11-8,44.8,38.4,29.1,38.6,31.2,20.6,89,75,61,29.59,29.17,23,5,23,0.01
2013-11-9,42.3,33.8,21.6,34.7,23.6,15.2,83,67,45,29.90,29.40,23,7,23,0.02
2013-11-10,42.4,27.3,18.1,29.4,13.2,-15.0,84,59,21,29.97,29.70,21,7,21,0.00
2013-11-11,32.0,15.1,5.9,-2.4,-7.8,-16.9,61,37,19,30.26,29.97,17,4,17,0.00
2013-11-12,51.8,28.6,13.1,27.7,15.2,-4.5,81,58,36,30.25,29.72,14,4,14,0.00
2013-11-13,59.4,42.9,31.5,37.2,32.3,26.9,84,67,40,29.72,29.51,14,4,14,0.00
2013-11-14,53.6,37.9,29.5,36.1,29.5,25.0,91,73,42,29.52,29.39,11,3,11,0.00
2013-11-15,65.8,37.7,23.5,33.1,26.6,20.0,89,68,22,29.40,29.01,12,2,12,0.00
2013-11-16,45.0,35.4,25.5,32.1,26.9,18.8,89,72,50,29.03,28.91,8,2,8,0.02
2013-11-17,35.1,31.6,28.6,33.2,28.6,23.6,98,89,81,29.58,29.03,10,1,10,0.01
2013-11-18,50.9,31.9,18.1,29.1,22.7,13.1,87,70,40,29.70,29.54,8,2,8,0.00
2013-11-19,39.4,33.3,29.3,30.4,26.6,24.5,84,76,67,29.55,29.16,9,3,9,0.00
2013-11-20,34.7,20.5,10.9,29.0,11.3,1.6,83,67,47,29.92,29.25,23,10,23,0.00
2013-11-21,18.0,7.7,-0.8,1.6,-5.4,-11.2,65,55,36,30.19,29.92,19,5,20,0.00
2013-11-22,21.2,9.2,-2.2,9.1,-4.1,-14.3,63,54,40,30.38,30.00,21,5,21,0.00
2013-11-23,22.5,5.8,-8.7,4.5,-8.0,-21.7,64,52,34,30.39,29.94,10,3,10,0.00
2013-11-24,47.7,29.0,13.3,27.5,16.2,4.3,71,59,40,29.94,29.47,14,5,14,0.00
2013-11-25,36.7,29.5,21.7,24.6,19.3,10.6,76,66,51,29.89,29.56,21,8,21,0.00
2013-11-26,29.1,16.0,9.3,11.1,3.0,-2.9,71,57,30,30.07,29.89,20,5,20,0.00
2013-11-27,39.4,22.8,9.9,20.5,11.4,-1.9,70,61,45,29.90,29.50,24,7,24,0.00
2013-11-28,24.8,21.3,16.7,15.6,10.0,6.5,68,61,55,29.97,29.79,16,5,16,0.00
2013-11-29,45.7,25.9,15.1,25.6,15.7,7.0,75,65,41,29.84,29.56,11,3,11,0.00
2013-11-30,37.9,31.4,24.8,28.0,23.5,16.9,81,72,61,29.76,29.62,7,2,7,0.00
2013-12-1,48.7,29.6,20.8,32.1,23.1,16.0,83,77,52,29.75,29.29,8,3,8,0.00
2013-12-2,31.5,26.5,19.6,29.0,22.3,13.8,92,84,76,29.40,29.14,16,7,16,0.00
2013-12-3,19.6,12.9,7.9,14.5,5.5,-0.1,80,71,67,29.60,29.37,17,9,17,0.00
2013-12-4,8.1,5.5,-2.0,-0.1,-3.2,-12.7,69,66,59,29.64,29.52,23,11,23,0.00
2013-12-5,1.0,-5.0,-8.9,-12.7,-18.5,-23.4,60,51,36,29.93,29.64,18,9,21,0.00
2013-12-6,-0.2,-9.9,-14.8,-19.5,-25.9,-30.5,50,44,30,30.14,29.93,14,5,14,0.00
2013-12-7,0.9,-14.3,-20.6,-24.5,-31.5,-36.7,48,40,24,30.15,29.89,11,3,11,0.00
2013-12-8,5.4,-6.6,-13.4,-12.9,-21.8,-27.3,53,46,31,29.90,29.57,12,3,12,0.00
2013-12-9,15.1,-1.4,-13.2,6.3,-15.2,-27.3,71,51,38,29.67,29.27,21,7,21,0.00
2013-12-10,19.9,4.6,-5.6,9.8,-8.6,-21.3,64,53,42,29.91,29.50,22,6,22,0.00
2013-12-18,45.3,30.3,9.0,27.1,18.4,-2.8,77,61,46,29.63,29.22,18,7,18,0.01
2013-12-19,8.2,0.9,-5.8,-3.2,-11.8,-18.2,59,54,49,29.81,29.66,14,6,14,0.00
2013-12-20,7.9,-1.5,-10.8,-8.7,-15.4,-24.7,57,51,40,29.73,29.34,7,3,7,0.00
2013-12-21,-0.2,-3.7,-7.8,-14.1,-17.1,-21.5,55,52,45,29.71,29.38,8,4,8,0.00
2013-12-22,3.4,-6.5,-17.1,-16.6,-22.1,-33.4,53,46,26,30.03,29.70,6,3,6,0.00
2013-12-23,0.5,-11.9,-20.7,-15.1,-28.2,-37.1,52,43,29,30.09,29.70,6,3,6,0.00
2013-12-24,31.1,23.1,-0.9,25.7,14.0,-15.1,82,68,50,29.67,29.52,12,4,12,0.00
2013-12-25,35.1,28.5,23.7,27.4,19.1,15.1,84,68,50,29.81,29.59,16,5,16,0.00
2013-12-26,37.6,29.2,24.3,24.3,19.5,14.9,81,67,54,29.67,29.54,16,3,16,0.01